STARLINK-1471, 45735

Orbit data source: Space-Track

STARLINK-1471, 45735 is a payload satellite owned by SpaceX/Seattle (US) in LEO that was launched on Sat, 13 Jun 2020 UTC via an FALCON 9 launch vehicle from the Air Force Eastern Test Range (AFETR). Payload-class satellites include a variety of spacecraft equipped with specific instruments for various scientific and technological missions. These include communications satellites like Starlink; space stations such as the ISS; scientific satellites like the Hubble; Earth observation satellites from companies like Planet Labs, Umbra, and HawkEye 360; GPS; miniature CubeSats for education and research; and military/defense satellites.

Loading next visibility...
Identifier
45735, 2020-038F
Orbit
LEO
Last TLE update
8 hours ago
Origin
Manufacturer
SpaceX/Seattle
Mission
Partially operational Commercial Communications
Bus & Motor
STARLINK, Unknown motor
Mass
260 kg wet, ~248 kg dry
Launch date (UTC)
2020-06-13 (5 years ago)
Launch vehicle
FALCON 9
Launch site
Air Force Eastern Test Range (AFETR)
Object type
Payload
Rocket body
Debris
Shape & HBR
Box + 1 Pan, 8.86 m
Radar Cross Section
13.562 m², Large (>1 m²)

Expand to show TLE details & history

TLE from 8 hours ago
0 STARLINK-1471
1 45735U 20038F   25181.89637128  .00007981  00000-0  24069-3 0  9997
2 45735  53.0516 254.1864 0001759 101.2477 258.8723 15.35236883278703
Epoch: 2025-06-30T21:30Z
TLE epoch observation values (Epoch: 2025-06-30T21:30:46.478Z)
Latitude
0.00003°
Longitude
12.29316°
Altitude
461.339 km
Speed
7.637 km/s
True Right ascension
16h 56m 44s
True Declination
0° 00' 00"
Sunlit
Object was in full shadow at epoch
Visualization orbit readout
Latitude
34.87433°
Longitude
159.23196°
Altitude
461.725 km
Speed
7.641 km/s
Apparent Right ascension
04h 02m 20s
Apparent Declination
-1° 03' 08"
Sunlit
Object is in daylight
Visualization observer readout
Local Sidereal Time
17:32:10
Azimuth
33.421° NE
Elevation
-46.093°
Doppler factor
1
Orbital elements
Apogee altitude
461.694 km
Perigee altitude
459.289 km
Semi-major axis
6,838.629 km
Eccentricity
0.00018
Inclination
53.0516°
RAAN
254.1864°
Arg. of periapsis
101.2477°
True anomaly
Unknown
Mean anomaly
258.8723°
Eccentric anomaly
Unknown
Mean motion
3.83786 °/min
Orbital period
93.8 mins
BSTAR
0.00024069
Loading maneuver chart data...
Loading SW <> Apogee altitude chart data...

STARLINK-1471 Visibility forecast

Observer location: undefined°, undefined°

Span
Click to sort rows by Start time (UTC) header in descending order
Start Az.
Max El. time (UTC)
Max El. Az.
Max El.
End time (UTC)
End Az.
6 mins2025-07-01 07:02:28.556Z198.536° SSW2025-07-01 07:05:28.556Z138.316° SSE29.386°2025-07-01 07:08:28.556Z69.56° E
4 mins2025-07-01 08:41:28.556Z283.454° WNW2025-07-01 08:43:28.556Z339.152° N26.167°2025-07-01 08:45:28.556Z24.159° NE
4 mins2025-07-01 13:37:28.556Z343.366° N2025-07-01 13:39:28.556Z45.583° ENE28.202°2025-07-01 13:41:28.556Z90.096° ESE
4 mins2025-07-01 15:15:28.556Z262.352° W2025-07-01 15:16:28.556Z233.261° WSW25.951°2025-07-01 15:19:28.556Z168.786° S
|